TimeEST,TemperatureF,Dew PointF,Humidity,Sea Level PressureIn,VisibilityMPH,Wind Direction,Wind SpeedMPH,Gust SpeedMPH,PrecipitationIn,Events,Conditions,WindDirDegrees,DateUTC
12:23 AM,26.6,24.8,93,30.51,5.0,North,4.6,-,N/A,,Freezing Rain,350,2012-12-02 05:23:00
12:41 AM,26.6,24.8,93,30.51,4.0,NW,5.8,-,N/A,,Overcast,320,2012-12-02 05:41:00
12:55 AM,26.4,24.1,91,30.50,4.0,NW,5.8,-,0.00,,Overcast,320,2012-12-02 05:55:00
1:30 AM,26.6,24.8,93,30.50,4.0,NW,8.1,-,N/A,,Overcast,320,2012-12-02 06:30:00
1:40 AM,26.6,24.8,93,30.50,4.0,NNW,6.9,-,N/A,,Light Freezing Drizzle,330,2012-12-02 06:40:00
1:55 AM,27.3,25.3,92,30.49,4.0,North,6.9,-,0.00,,Light Freezing Drizzle,350,2012-12-02 06:55:00
2:55 AM,28.0,26.6,94,30.48,3.0,NNW,5.8,-,0.00,,Light Freezing Drizzle,330,2012-12-02 07:55:00
3:11 AM,28.4,26.6,93,30.48,3.0,NW,6.9,-,N/A,,Overcast,320,2012-12-02 08:11:00
3:27 AM,28.4,26.6,93,30.47,2.5,NW,4.6,-,N/A,Rain,Light Freezing Rain,320,2012-12-02 08:27:00
3:55 AM,28.6,27.1,94,30.45,3.0,North,4.6,-,0.01,,Overcast,350,2012-12-02 08:55:00
4:22 AM,28.4,26.6,93,30.44,3.0,Calm,Calm,-,N/A,,Light Freezing Drizzle,0,2012-12-02 09:22:00
4:42 AM,28.4,26.6,93,30.44,4.0,NW,4.6,-,N/A,,Overcast,320,2012-12-02 09:42:00
4:55 AM,29.1,27.7,94,30.44,4.0,NNW,4.6,-,0.01,,Overcast,330,2012-12-02 09:55:00
5:55 AM,29.1,27.9,95,30.42,3.0,NW,4.6,-,0.00,,Overcast,320,2012-12-02 10:55:00
6:17 AM,28.4,28.4,100,30.41,2.5,NW,4.6,-,N/A,,Overcast,320,2012-12-02 11:17:00
6:55 AM,29.5,28.4,96,30.40,1.2,NW,4.6,-,N/A,,Overcast,320,2012-12-02 11:55:00
7:55 AM,30.0,29.3,97,30.38,0.8,WNW,4.6,-,N/A,,Overcast,300,2012-12-02 12:55:00
8:06 AM,30.2,30.2,100,30.38,0.8,Calm,Calm,-,N/A,,Light Freezing Drizzle,0,2012-12-02 13:06:00
8:35 AM,30.2,30.2,100,30.37,0.5,Calm,Calm,-,N/A,Fog,Light Freezing Fog,0,2012-12-02 13:35:00
8:55 AM,30.9,30.4,98,30.36,0.5,Calm,Calm,-,0.00,Fog,Light Freezing Fog,0,2012-12-02 13:55:00
9:38 AM,32.0,32.0,100,30.34,0.2,Calm,Calm,-,N/A,Fog,Light Freezing Fog,0,2012-12-02 14:38:00
9:55 AM,32.0,31.8,99,30.34,0.2,West,3.5,-,N/A,Fog,Fog,270,2012-12-02 14:55:00
10:55 AM,33.1,32.9,99,30.30,0.1,West,3.5,-,N/A,Fog,Fog,270,2012-12-02 15:55:00
11:55 AM,34.5,34.3,99,30.27,0.1,Calm,Calm,-,N/A,Fog,Fog,0,2012-12-02 16:55:00
12:55 PM,36.1,36.0,99,30.24,0.1,SW,3.5,-,N/A,Fog,Fog,220,2012-12-02 17:55:00
1:55 PM,39.0,38.7,99,30.19,1.0,South,4.6,-,N/A,,Overcast,180,2012-12-02 18:55:00
2:55 PM,39.7,39.4,99,30.16,0.8,Calm,Calm,-,N/A,,Overcast,0,2012-12-02 19:55:00
3:31 PM,39.2,39.2,100,30.15,1.2,Calm,Calm,-,N/A,,Overcast,0,2012-12-02 20:31:00
3:55 PM,40.3,40.1,99,30.14,2.0,Calm,Calm,-,N/A,,Overcast,0,2012-12-02 20:55:00
4:22 PM,39.2,39.2,100,30.12,2.0,Calm,Calm,-,N/A,Rain,Light Rain,0,2012-12-02 21:22:00
4:55 PM,39.4,39.0,99,30.12,2.0,Calm,Calm,-,0.00,Rain,Light Rain,0,2012-12-02 21:55:00
5:38 PM,39.2,39.2,100,30.10,5.0,Calm,Calm,-,N/A,Rain,Light Rain,0,2012-12-02 22:38:00
5:55 PM,39.0,38.7,99,30.09,4.0,Calm,Calm,-,0.01,Rain,Light Rain,0,2012-12-02 22:55:00
6:18 PM,39.2,39.2,100,30.07,4.0,ESE,3.5,-,N/A,,Overcast,120,2012-12-02 23:18:00
6:55 PM,39.0,38.8,99,30.06,5.0,South,3.5,-,0.00,,Overcast,170,2012-12-02 23:55:00
7:55 PM,42.8,42.4,99,30.06,7.0,SW,3.5,-,0.00,Rain,Light Rain,220,2012-12-03 00:55:00
8:55 PM,47.1,46.8,99,30.03,8.0,SW,8.1,-,0.02,Rain,Light Rain,220,2012-12-03 01:55:00
9:55 PM,47.8,44.8,89,30.03,8.0,SSW,10.4,-,0.00,Rain,Light Rain,210,2012-12-03 02:55:00
10:55 PM,47.8,45.0,90,30.01,8.0,SSW,9.2,-,0.01,Rain,Light Rain,210,2012-12-03 03:55:00
11:55 PM,47.5,45.1,92,30.00,8.0,SW,6.9,-,0.01,Rain,Light Rain,230,2012-12-03 04:55:00